Forside
METAR-TAF:

METAR-TAF

Lufthavne :

Rice Lake Regional Airport (Carl's Field)

Rice Lake, Wisconsin, USA

Breddekreds: 45-25-05N, længdekreds: 091-46-25W, højde: 337 m

Aktuelle vejr

Denne rapport blev lavet for 17 minutter siden, kl. 01:35 UTC
Vind stille
Temperatur -7°C
Fugtighed 57%
Tryk 1019 hPa
Sigt: 16.1 km
skyfri

METAR: KRPD 280135Z AUTO 00000KT 10SM CLR M07/M14 A3008 RMK AO2 T10691137

Tid: 19:52 (01:52 UTC)


TAF: fraværende

Vejrobservationer og prognoser fra mere end 4000 lufthavne (METAR og TAF).

De gule og røde prikker repræsenterer de meteorologiske stationer.

Flyt musen over at se navnet på stationen.

Så klik over at se vejr observationer og prognoser.

At skifte det kort: Klik på de grønne knapper med et sort kors for at zoome ind; på den grønne knap med en bindestreg for at zoome ud; eller på de grønne pile for tilstødende kort.


METAR-TAF: